Ft Riley, KS

4:46 PM CDT on April 27, 2017 (GMT -0500)
Marshall Army Air Field

Weather History for KFRI - May, 2013

Change the Weather History Date:

Thursday, May 9, 2013

  Actual Average (KMHK) Record (KMHK)
Temperature  
Mean Temperature 61 °F -  
Max Temperature 68 °F 73 °F 100 °F (2011)
Min Temperature 54 °F 47 °F 35 °F (1997)
Degree Days  
Heating Degree Days 4    
Growing Degree Days 11 (Base 50)    
Moisture  
Dew Point 59 °F    
Average Humidity 91    
Maximum Humidity 100    
Minimum Humidity 66    
Precipitation  
Precipitation 0.14 in - - ()
Sea Level Pressure  
Sea Level Pressure 29.92 in    
Wind  
Wind Speed 7 mph (WNW)    
Max Wind Speed 15 mph    
Max Gust Speed -    
Visibility 10 miles    
Events Rain    
Averages and records for this station are not official NWS values.
T = Trace of Precipitation, MM = Missing Value Source: NWS Daily Summary

Daily Weather History Graph

Daily Weather History Graph

Search for Another Location

Airport or City:

Trip Planner

Search our weather history database for the weather conditions in past years. The results will help you decide how hot, cold, wet, or windy it might be!

Date:

Astronomy

May. 09, 2013 Rise Set
Actual Time 6:19 AM CDT 8:27 PM CDT
Civil Twilight 5:50 AM CDT 8:57 PM CDT
Nautical Twilight 5:13 AM CDT 9:33 PM CDT
Astronomical Twilight 4:34 AM CDT 10:13 PM CDT
Moon 6:04 AM CDT (5/9) 8:24 PM CDT (5/9)
Length of Visible Light 15h 07m
Length of Day
14h 08m
Waning Crescent, 0% of the Moon is Illuminated
May 9
Waning Crescent
May 9
New
May 17
First Quarter
May 24
Full
May 31
Last Quarter

Hourly Weather History & Observations

Time (CDT) Temp. Dew Point Humidity Pressure Visibility Wind Dir Wind Speed Gust Speed Precip Events Conditions
12:12 AM 60.8 °F 60.8 °F 100% 29.96 in 3.0 mi SW 15.0 mph - N/A Rain Rain
12:58 AM 60.3 °F 60.3 °F 100% 29.92 in 5.0 mi WSW 13.8 mph - 0.08 in Rain Rain
1:58 AM 57.7 °F 57.7 °F 100% 29.88 in 10.0 mi Variable 5.8 mph - 0.05 in Rain Light Rain
2:23 AM 57.2 °F 57.2 °F 100% 29.87 in 10.0 mi Variable 2.3 mph - N/A   Mostly Cloudy
2:58 AM 58.3 °F 58.3 °F 100% 29.85 in 10.0 mi SSE 1.2 mph - 0.00 in   Clear
3:03 AM 59.0 °F 59.0 °F 100% 29.88 in 10.0 mi SSW 10.4 mph - N/A   Light Drizzle
3:36 AM 57.2 °F 57.2 °F 100% 29.88 in 10.0 mi South 6.9 mph - N/A   Mostly Cloudy
3:58 AM 57.2 °F 57.2 °F 100% 29.86 in 10.0 mi South 6.9 mph - 0.01 in   Mostly Cloudy
4:58 AM 56.8 °F 56.8 °F 100% 29.84 in 10.0 mi South 5.8 mph - N/A   Clear
5:58 AM 55.9 °F 55.9 °F 100% 29.86 in 10.0 mi West 2.3 mph - N/A   Clear
6:58 AM 54.9 °F 54.9 °F 100% 29.88 in 10.0 mi SW 4.6 mph - N/A   Clear
7:58 AM 56.8 °F 56.8 °F 100% 29.88 in 10.0 mi NW 1.2 mph - N/A   Clear
8:58 AM 59.4 °F 59.4 °F 100% 29.89 in 10.0 mi WSW 1.2 mph - N/A   Partly Cloudy
9:53 AM 60.8 °F 60.8 °F 100% 29.92 in 10.0 mi Calm Calm - N/A   Mostly Cloudy
9:58 AM 61.5 °F 60.6 °F 97% 29.91 in 10.0 mi Calm Calm - N/A   Overcast
10:03 AM 60.8 °F 60.8 °F 100% 29.92 in 10.0 mi Calm Calm - N/A   Overcast
10:58 AM 62.2 °F 60.6 °F 94% 29.91 in 10.0 mi West 4.6 mph - N/A   Overcast
11:58 AM 61.9 °F 61.0 °F 97% 29.94 in 10.0 mi WSW 5.8 mph - N/A   Overcast
12:58 PM 63.7 °F 61.9 °F 94% 29.94 in 10.0 mi WNW 6.9 mph - N/A   Overcast
1:28 PM 64.4 °F 60.8 °F 88% 29.94 in 10.0 mi Variable 5.8 mph - N/A   Overcast
1:33 PM 64.4 °F 62.6 °F 94% 29.94 in 10.0 mi SW 4.6 mph - N/A   Overcast
1:38 PM 64.4 °F 62.6 °F 94% 29.94 in 10.0 mi WSW 5.8 mph - N/A   Overcast
1:48 PM 64.4 °F 60.8 °F 88% 29.95 in 10.0 mi Variable 6.9 mph - N/A   Overcast
1:58 PM 64.2 °F 61.7 °F 91% 29.94 in 10.0 mi NW 8.1 mph - N/A   Overcast
2:03 PM 64.4 °F 62.6 °F 94% 29.95 in 10.0 mi NW 6.9 mph - N/A   Overcast
2:28 PM 64.4 °F 60.8 °F 88% 29.95 in 10.0 mi WNW 4.6 mph - N/A   Overcast
2:33 PM 64.4 °F 62.6 °F 94% 29.94 in 10.0 mi WNW 4.6 mph - N/A   Overcast
2:43 PM 64.4 °F 60.8 °F 88% 29.94 in 10.0 mi WNW 8.1 mph - N/A   Overcast
2:58 PM 64.8 °F 60.4 °F 86% 29.92 in 10.0 mi WNW 8.1 mph - N/A   Overcast
3:08 PM 66.2 °F 60.8 °F 83% 29.93 in 10.0 mi Variable 4.6 mph - N/A   Overcast
3:43 PM 68.0 °F 59.0 °F 73% 29.94 in 10.0 mi NW 9.2 mph - N/A   Mostly Cloudy
3:53 PM 66.2 °F 59.0 °F 78% 29.94 in 10.0 mi NW 5.8 mph - N/A   Mostly Cloudy
3:58 PM 66.9 °F 59.2 °F 76% 29.93 in 10.0 mi NW 5.8 mph - N/A   Mostly Cloudy
4:58 PM 68.9 °F 57.9 °F 68% 29.93 in 10.0 mi NNW 10.4 mph - N/A   Scattered Clouds
5:58 PM 68.4 °F 56.5 °F 66% 29.92 in 10.0 mi NW 11.5 mph - N/A   Mostly Cloudy
6:58 PM 67.3 °F 57.9 °F 72% 29.94 in 10.0 mi NNW 8.1 mph - N/A   Clear
7:58 PM 63.9 °F 55.6 °F 74% 29.94 in 10.0 mi NNW 5.8 mph - N/A   Partly Cloudy
8:58 PM 62.6 °F 57.2 °F 82% 29.95 in 10.0 mi Calm Calm - N/A   Clear
9:58 PM 61.2 °F 58.5 °F 91% 29.96 in 10.0 mi North 6.9 mph - N/A   Clear
10:58 PM 58.5 °F 58.3 °F 99% 29.98 in 10.0 mi NNW 5.8 mph - N/A   Clear
11:58 PM 56.3 °F 56.3 °F 100% 30.00 in 10.0 mi NW 3.5 mph - N/A   Clear